Weather History for Brooksville, FL

Change the Weather History Date:

Saturday, August 17, 2013

  Actual Average Record
Temperature  
Mean Temperature 83 °F -  
Max Temperature 93 °F 88 °F 95 °F (2001)
Min Temperature 73 °F 70 °F 70 °F (1996)
Cooling Degree Days 18    
Growing Degree Days 33 (Base 50)    
Moisture  
Dew Point 73 °F    
Average Humidity 85    
Maximum Humidity 100    
Minimum Humidity 52    
Precipitation  
Precipitation 2.22 in - - ()
Sea Level Pressure  
Sea Level Pressure 30.05 in    
Wind  
Wind Speed 6 mph (ESE)    
Max Wind Speed 36 mph    
Max Gust Speed 43 mph    
Visibility 8 miles    
Events Fog , Rain , Thunderstorm    
Averages and records for this station are not official NWS values.
T = Trace of Precipitation, MM = Missing Value Source: NWS Daily Summary

Daily Weather History Graph

Daily Weather History Graph

Search for Another Location

Airport:

Trip Planner

Search our weather history database for the weather conditions in past years. The results will help you decide how hot, cold, wet, or windy it might be!

Date:

Astronomy

Aug. 17, 2013 Rise Set
Actual Time 7:00 AM EDT 8:06 PM EDT
Civil Twilight 6:35 AM EDT 8:31 PM EDT
Nautical Twilight 6:06 AM EDT 9:00 PM EDT
Astronomical Twilight 5:36 AM EDT 9:30 PM EDT
Moon 5:13 PM EDT (8/17) 3:11 AM EDT (8/17)
Length of Visible Light 13h 55m
Length of Day
13h 06m
Waxing Gibbous, 84% of the Moon is Illuminated
Aug 17
Waxing Gibbous
Aug 20
Full
Aug 28
Last Quarter
Sep 5
New
Sep 12
First Quarter

Hourly Weather History & Observations

Time (EDT) Temp. Heat Index Dew Point Humidity Pressure Visibility Wind Dir Wind Speed Gust Speed Precip Events Conditions
12:53 AM 79.0 °F - 73.9 °F 84% 30.05 in 10.0 mi ENE 8.1 mph - N/A   Scattered Clouds
1:41 AM 77.0 °F - 71.6 °F 83% 30.07 in 10.0 mi ESE 4.6 mph - N/A Thunderstorm Clear
1:53 AM 77.0 °F - 71.1 °F 82% 30.06 in 10.0 mi ESE 5.8 mph - N/A   Clear
2:53 AM 75.0 °F - 73.0 °F 94% 30.05 in 10.0 mi SE 5.8 mph - 0.05 in Rain Light Rain
3:53 AM 75.0 °F - 73.0 °F 94% 30.04 in 10.0 mi Calm Calm - 0.00 in   Clear
4:53 AM 73.9 °F - 73.0 °F 97% 30.01 in 10.0 mi Calm Calm - N/A   Clear
5:53 AM 77.0 °F - 73.0 °F 88% 30.03 in 10.0 mi Calm Calm - N/A   Clear
6:53 AM 75.0 °F - 73.0 °F 94% 30.04 in 10.0 mi Calm Calm - N/A   Clear
7:53 AM 75.0 °F - 73.9 °F 96% 30.06 in 10.0 mi ENE 3.5 mph - N/A   Clear
8:53 AM 77.0 °F - 73.9 °F 90% 30.06 in 10.0 mi East 4.6 mph - N/A   Clear
9:53 AM 80.1 °F 85.4 °F 75.9 °F 87% 30.06 in 10.0 mi ESE 5.8 mph - N/A   Clear
10:53 AM 84.0 °F 93.7 °F 77.0 °F 79% 30.07 in 10.0 mi SE 8.1 mph - N/A   Clear
11:53 AM 87.1 °F 98.8 °F 77.0 °F 72% 30.07 in 10.0 mi SE 9.2 mph - N/A   Partly Cloudy
12:53 PM 89.1 °F 99.1 °F 75.0 °F 63% 30.05 in 10.0 mi SE 10.4 mph - N/A   Partly Cloudy
1:53 PM 91.0 °F 101.6 °F 75.0 °F 59% 30.04 in 10.0 mi SSE 10.4 mph - N/A   Partly Cloudy
2:53 PM 91.0 °F 100.4 °F 73.9 °F 57% 30.02 in 10.0 mi ESE 5.8 mph - N/A   Mostly Cloudy
3:53 PM 93.0 °F 103.2 °F 73.9 °F 54% 30.01 in 10.0 mi Variable 5.8 mph - N/A   Partly Cloudy
4:53 PM 93.0 °F 101.9 °F 73.0 °F 52% 29.99 in 10.0 mi SSE 9.2 mph - N/A   Partly Cloudy
5:53 PM 84.9 °F 90.1 °F 71.1 °F 63% 29.99 in 4.0 mi South 5.8 mph 21.9 mph 0.02 in Rain Rain
6:06 PM 78.8 °F - 73.4 °F 83% 30.06 in 1.0 mi South 31.1 mph 42.6 mph 0.20 in Rain Light Rain
6:13 PM 73.4 °F - 73.4 °F 100% 30.08 in 0.2 mi South 35.7 mph 42.6 mph 0.89 in Fog , Rain Light Rain
6:21 PM 73.4 °F - 73.4 °F 100% 30.08 in 0.2 mi North - - 1.63 in Fog , Rain Heavy Rain
6:42 PM 73.4 °F - 73.4 °F 100% 30.06 in 1.8 mi NNW 8.1 mph - 2.13 in Rain Rain
6:53 PM 73.0 °F - 72.0 °F 96% 30.06 in 2.5 mi North 3.5 mph - 2.15 in Rain Light Rain
7:00 PM 73.4 °F - 71.6 °F 94% 30.06 in 10.0 mi East 3.5 mph - 0.00 in Rain Light Rain
7:27 PM 73.4 °F - 71.6 °F 94% 30.06 in 10.0 mi Calm Calm - 0.00 in   Scattered Clouds
7:53 PM 73.9 °F - 72.0 °F 93% 30.07 in 10.0 mi NE 3.5 mph - 0.00 in   Partly Cloudy
8:53 PM 75.0 °F - 73.0 °F 94% 30.09 in 10.0 mi NE 4.6 mph - N/A   Clear
9:53 PM 73.9 °F - 73.0 °F 97% 30.10 in 10.0 mi NE 3.5 mph - N/A   Clear
10:53 PM 75.0 °F - 73.0 °F 94% 30.09 in 10.0 mi ENE 4.6 mph - N/A   Mostly Cloudy
11:53 PM 75.0 °F - 73.9 °F 96% 30.11 in 10.0 mi Calm Calm - N/A   Mostly Cloudy